SCP
0 0 0 0 0 0 0 0 0 0 0 0 0 0 0 0 0 0 0 0 0 0 0 0 0 0 0 0 0 0 0 0 0 0 0 0 0 0 0 0 0 0 0 0 0 0 0
0 0 0 0 0 0 0 0 0 0 0 0 0 0 -0 0 0 0 0 0 -0 0 0 0 0 0 0 0 0 0 0 0 0 0 0 0 0 0 0 0 0 0 0 0 0 0 0
0 0 0 0 0 0 0 0 0 0 -0 0 0 0 -0 -0 -0 -0 0 -0 -0 -0 0 0 0 0 0 0 0 0 0 0 0 0 0 0 0 0 0 0 0 0 0 0 0 0 0
0 0 0 0 0 0 0 0 0 0 0 -0 0 0 -0 -0 -0 -0 -0 0 -0 0 0 0 0 0 0 0 0 0 0 0 0 0 0 0 0 0 0 0 0 0 0 0 0 0 0
0 0 0 0 0 0 0 0 0 0 0 -0 -0 -0 -0 -0 -0 -0 0 0 0 0 0 0 0 0 0 0 0 0 0 0 0 0 0 0 0 0 0 0 0 0 0 0 0 0 0
0 0 0 0 0 0 0 0 0 0 0 0 -0 -0 0 0 0 0 0 0 0 0 0 0 0 0 0 0 0 0 0 0 0 0 0 0 0 0 0 0 0 0 0 0 0 0 0
0 0 0 0 0 0 0 0 0 0 0 0 0 0 0 0 0 0 0 0 -0 0 0 0 0 0 0 0 0 0 0 0 0 0 0 0 0 0 0 0 0 0 0 0 0 0 0
0 0 0 0 0 0 0 0 0 0 0 0 0 0 0 0 0 0 0 0 0 0 0 0 0 0 0 0 0 0 0 0 0 0 0 0 0 0 0 0 0 0 0 0 0 0 0
0 0 0 0 0 0 0 0 0 0 0 0 0 0 0 0 0 0 0 0 0 0 0 0 0 0 0 0 0 0 0 0 0 0 0 0 0 0 0 0 0 0 0 0 0 0 0
0 0 0 0 0 0 0 0 0 0 0 0 0 0 0 0 0 0 0 0 0 0 0 0 0 0 0 0 0 0 0 0 0 0 0 0 0 0 0 0 0 0 0 0 0 0 0
0 0 0 0 0 0 0 0 0 0 0 0 0 0 0 0 0 0 0 0 0 0 0 0 0 0 0 0 0 0 0 0 0 0 0 0 0 0 0 0 0 0 0 0 0 0 0
0 0 0 0 0 0 0 0 0 0 0 0 0 0 0 0 0 0 0 0 0 0 0 0 0 0 0 0 0 0 0 0 0 0 0 0 0 0 0 0 0 0 0 0 0 0 0
0 0 0 0 0 0 0 0 0 0 0 0 0 0 0 0 0 0 0 0 0 0 0 0 0 0 0 0 0 0 0 0 0 0 0 0 0 0 0 0 0 0 0 -0 0 0 0
0 0 0 0 0 0 0 0 0 0 0 0 0 0 0 0 0 0 0 0 0 0 0 0 0 0 0 0 0 0 0 0 0 0 0 0 0 0 0 0 0 0 0 0 0 0 0
0 0 0 0 0 0 0 0 0 0 0 0 0 0 0 0 0 0 0 0 0 0 0 0 0 0 0 0 0 0 0 0 0 0 0 0 0 0 0 0 0 0 0 0 0 0 0
0 0 0 0 0 0 0 0 0 0 0 0 0 0 0 0 0 0 0 0 0 0 0 0 0 0 0 0 0 0 0 0 0 0 0 0 0 0 0 0 0 0 0 0 0 0 0
0 0 0 0 0 0 0 0 0 0 0 0 0 0 0 0 0 0 0 0 0 0 0 0 0 0 0 0 0 0 0 0 0 0 0 0 0 0 0 0 0 0 0 0 0 0 0
0 0 0 0 0 0 0 0 0 0 0 0 0 0 0 0 0 0 0 0 0 0 0 0 0 0 0 0 0 0 0 0 0 0 0 0 0 0 0 0 0 0 0 0 0 0 0
0 0 0 0 0 0 0 0 0 0 0 0 0 0 0 0 0 0 0 0 0 0 0 0 0 0 0 0 0 0 0 0 0 0 0 0 0 0 0 0 0 0 0 0 -0 0 0
0 0 0 0 0 0 0 0 0 0 0 0 0 0 0 0 0 0 0 0 0 0 0 0 0 0 0 0 0 0 0 0 0 0 0 0 0 0 0 0 0 0 -0 0 -0 0 0
0 0 0 0 0 0 0 0 0 0 0 0 0 0 0 0 0 0 0 0 0 0 0 0 0 0 0 0 0 0 0 0 0 0 0 0 0 0 0 0 -0 0 -0 -0 0 0 0
0 0 0 0 0 0 0 0 0 0 0 0 0 0 0 0 0 0 0 0 0 0 0 0 0 0 0 0 0 0 0 -0 0 0 0 0 0 0 0 0 -0 -0 0 0 0 0 0
0 0 0 0 0 0 0 0 0 0 0 0 0 0 0 0 0 0 0 0 0 0 0 0 0 0 0 0 0 -0 0 0 0 0 0 0 0 0 0 0 -0 -0 0 0 0 0 0
0 0 0 0 0 0 0 0 0 0 0 0 0 0 0 0 0 0 0 0 0 0 0 0 0 0 0 0 0 0 0 0 0 0 0 0 0 0 0 0 0 0 0 0 0 -0 0
0 0 0 0 0 0 0 0 0 0 0 0 0 0 0 0 0 0 0 0 0 0 0 0 0 0 0 -0 0 0 0 0 0 0 0 0 0 0 0 0 0 0 0 0 -0 -0 -0
0 0 0 0 0 0 0 0 0 0 0 0 0 0 0 0 0 0 0 0 0 0 0 0 0 0 0 0 0 0 0 0 0 0 -0 0 0 0 0 0 0 -0 -0 0 0 0 -0
0 0 0 0 0 0 0 0 0 0 0 0 0 0 0 0 0 0 0 0 0 0 0 0 0 0 0 0 0 0 0 0 0 0 0 0 0 0 0 0 0 -0 0 0 0 -0 -0
0 0 0 0 0 0 0 0 0 0 0 0 0 0 0 0 0 0 0 0 0 0 0 0 0 0 0 0 0 0 0 0 0 0 0 0 0 0 0 0 0 0 0 0 -0 -0 -0
0 0 0 0 0 0 0 0 0 0 0 0 0 0 0 0 0 0 0 0 0 0 0 0 0 0 0 0 -0 -0 0 0 0 -0 0 0 0 0 0 0 0 0 0 0 0 0 -0
Wind_Speed_500mb
34 37 41 37 37 42 45 38 38 47 42 50 52 49 52 54 56 55 53 45 49 52 50 44 23 24 31 10 11 8 13 27 24 24 23 28 17 7 7 6 10 10 25 39 55 58 47
36 38 38 36 39 44 41 44 38 38 44 51 53 52 53 54 56 54 51 46 51 50 42 26 21 32 18 5 12 5 21 31 25 27 26 20 9 9 16 14 12 14 18 39 49 65 45
34 33 37 34 40 48 52 46 46 45 37 45 52 54 57 55 55 54 49 49 56 51 23 35 27 19 13 9 8 19 30 36 29 25 25 24 24 17 7 11 37 29 22 30 43 57 29
35 39 40 40 35 46 51 48 48 48 47 40 48 52 53 56 58 56 50 52 53 48 22 27 8 6 9 9 15 25 30 34 22 22 27 27 25 28 28 23 19 15 9 20 26 20 19
34 32 41 44 40 42 48 49 53 49 51 49 45 50 53 58 62 58 55 54 49 11 36 15 3 4 7 7 18 29 29 29 29 26 23 28 20 13 5 4 9 10 12 19 30 31 10
36 26 27 37 42 41 43 46 51 47 50 50 51 48 50 58 60 58 61 56 45 5 27 8 10 8 11 10 24 34 26 20 26 28 16 3 4 3 1 6 14 21 17 28 35 20 22
35 35 36 38 37 37 37 42 46 42 44 51 51 51 51 59 63 51 65 52 48 6 42 15 25 18 25 24 39 32 18 13 14 7 3 3 2 20 26 33 33 24 29 35 45 49 34
37 36 35 38 39 39 40 42 45 42 44 47 49 52 56 58 54 56 51 36 35 23 24 13 21 34 31 28 19 27 12 5 4 10 5 5 18 33 17 19 27 29 36 43 48 29 18
34 35 36 39 41 43 44 46 47 47 47 47 48 51 58 61 43 68 42 41 46 21 12 20 17 21 17 14 15 19 5 6 10 8 13 16 21 15 24 25 28 35 29 38 40 45 21
37 37 38 39 39 40 44 43 46 48 49 49 51 54 59 61 38 73 25 42 41 19 9 7 7 6 8 11 11 18 15 8 4 10 6 14 10 14 22 19 23 27 15 29 33 22 22
36 36 37 41 39 37 39 43 45 47 48 51 54 55 58 60 62 58 33 42 27 8 10 3 5 8 8 8 21 2 12 8 12 16 11 20 14 15 14 20 6 21 25 26 33 33 26
33 30 30 39 38 38 40 44 47 49 50 52 55 56 58 62 72 46 33 37 15 10 13 8 4 5 6 6 7 13 10 9 5 4 7 34 13 8 12 12 6 20 11 29 7 3 6
31 22 28 35 39 41 44 47 50 52 54 56 58 60 55 68 58 34 18 21 9 7 5 8 8 1 0 7 8 4 5 8 5 10 8 7 9 8 9 11 11 15 13 9 11 7 11
24 25 30 34 40 45 49 52 54 56 58 55 57 62 69 66 43 15 7 8 6 8 14 6 4 5 9 3 8 5 7 9 1 9 6 2 18 5 5 11 11 6 11 5 12 6 33
20 25 33 40 44 49 51 51 54 59 64 66 68 69 71 37 22 15 5 3 13 11 4 6 9 4 7 7 6 6 7 9 9 15 14 4 14 7 21 14 16 10 3 9 11 2 7
21 29 37 41 43 48 48 52 58 64 72 74 78 62 37 15 13 17 5 17 12 9 1 5 8 11 13 6 5 2 3 7 8 18 4 7 14 10 4 9 6 10 4 8 2 10 12
25 35 37 39 43 43 48 58 68 73 70 68 58 30 16 15 17 9 7 15 10 24 14 11 14 17 19 9 9 8 12 6 9 4 9 7 6 14 7 3 13 8 8 10 6 5 6
30 36 37 40 44 52 64 70 72 67 62 64 34 10 23 32 6 8 5 11 8 12 21 17 10 21 11 12 11 12 17 14 13 12 7 10 8 9 21 18 10 10 10 4 3 12 8
36 36 41 47 55 64 67 67 57 55 54 57 31 31 23 23 8 7 12 15 13 25 13 8 10 16 12 12 13 18 14 13 29 13 9 8 5 8 22 11 8 4 8 10 14 5 17
40 43 48 53 61 66 67 56 55 45 47 45 21 8 7 25 25 11 23 37 20 10 14 16 10 26 31 13 16 14 22 10 20 25 43 18 13 16 19 20 3 21 32 29 15 7 6
43 45 52 58 63 64 56 44 42 44 42 39 10 9 8 11 17 19 22 32 40 46 21 12 41 23 27 25 34 20 24 17 22 40 15 7 19 9 17 19 10 33 40 41 22 23 13
45 50 55 66 61 62 49 46 42 42 44 32 14 14 14 38 42 24 31 42 48 30 41 37 17 44 38 30 27 38 28 37 25 4 11 10 8 7 8 15 1 12 22 22 25 22 22
49 54 59 65 63 49 43 42 42 41 36 35 31 43 41 28 20 23 28 36 50 47 26 44 42 35 37 42 41 44 45 52 43 16 19 10 8 4 9 5 13 14 12 9 5 6 8
51 54 57 59 50 42 43 41 43 41 36 40 51 50 35 25 21 28 44 50 47 27 33 51 57 35 48 58 56 58 55 43 36 34 33 11 10 6 7 8 5 14 5 6 10 15 14
54 59 54 54 43 42 42 44 43 43 40 43 47 42 34 22 38 43 43 31 61 73 25 31 51 57 54 25 11 13 10 6 9 19 21 24 12 3 3 5 13 14 4 8 7 12 9
57 55 55 46 41 41 41 43 44 44 45 46 53 56 50 29 17 42 55 46 23 37 44 41 36 42 25 6 13 19 7 5 7 8 4 10 20 10 5 7 8 14 8 6 6 7 6
57 54 50 40 41 41 44 46 44 48 46 48 61 56 53 59 61 31 35 42 43 29 12 31 28 34 39 7 12 8 14 3 4 6 6 5 4 20 8 5 14 12 8 10 8 9 4
53 52 49 41 40 44 47 47 47 48 52 51 63 59 58 63 70 75 51 48 71 57 21 40 21 7 7 3 5 3 5 3 3 5 7 11 11 6 4 5 13 13 9 9 11 5 5
58 52 45 37 43 45 48 50 49 52 54 51 69 67 68 65 80 101 92 88 75 57 51 23 17 17 12 1 5 5 5 3 2 4 2 5 8 6 13 11 7 25 13 21 14 13 8
Wind_Direction_500mb
20 13 9 14 9 360 359 4 4 357 359 351 355 349 348 349 348 345 344 344 339 333 330 324 333 321 328 299 250 253 321 327 330 330 342 353 13 20 344 304 330 262 275 294 287 292 284
8 10 3 9 10 6 1 358 360 354 353 348 353 351 346 347 346 345 347 344 336 330 330 332 309 315 326 264 177 297 325 333 327 326 325 332 334 299 270 239 200 245 260 258 272 277 279
6 12 360 5 358 358 5 359 360 356 352 349 346 348 348 348 347 346 346 344 334 331 318 328 307 274 287 229 237 307 315 323 316 313 314 313 302 257 249 281 256 263 279 275 270 269 261
2 6 8 8 5 348 355 360 1 358 354 347 343 346 347 347 347 346 345 345 332 332 335 331 329 254 261 189 279 309 311 310 299 296 301 304 291 271 241 260 297 272 242 266 256 231 239
355 359 353 355 0 355 351 358 353 354 353 354 346 345 349 347 344 343 345 347 337 327 342 334 320 259 257 255 297 320 321 312 311 313 305 299 276 250 188 210 312 219 257 227 281 285 230
346 357 355 352 350 350 352 350 346 351 348 350 350 344 344 343 345 342 345 351 348 186 352 297 272 284 234 284 315 329 323 293 311 308 333 134 238 268 254 135 235 256 259 274 276 269 321
1 1 1 352 349 348 350 342 346 350 347 351 352 348 343 343 346 347 347 2 15 330 333 282 273 270 289 301 302 329 299 300 303 309 239 328 254 239 236 216 237 264 269 267 281 285 293
352 350 350 347 352 354 356 354 353 352 347 348 349 351 347 345 349 351 348 23 6 319 310 313 256 263 281 294 289 319 275 280 219 246 149 342 232 252 249 239 248 259 268 283 287 285 309
355 357 355 352 350 349 350 352 353 350 351 347 348 347 347 344 352 349 352 359 349 334 278 288 252 272 283 273 280 309 278 228 220 249 205 201 248 312 276 275 282 271 277 282 276 301 278
348 348 343 339 339 340 344 346 347 350 350 350 348 350 346 343 351 345 342 340 340 323 48 253 253 269 237 278 279 300 270 231 242 248 260 241 278 262 287 268 275 281 243 275 287 313 296
331 332 342 348 345 342 344 349 352 352 351 348 344 346 343 341 336 339 329 335 337 330 351 181 221 234 255 223 308 306 191 203 217 236 94 254 274 286 276 259 243 248 304 281 270 267 294
333 340 347 352 351 353 349 348 348 347 345 338 338 339 337 335 332 332 325 326 324 33 259 308 229 218 340 217 242 293 276 252 274 300 261 256 283 223 230 284 261 308 321 294 352 157 237
335 339 344 346 342 344 343 341 340 337 337 334 334 332 329 329 324 317 322 326 7 146 346 271 273 196 243 264 293 56 328 309 186 2 319 307 240 260 202 355 346 40 27 325 346 355 237
323 334 341 342 340 338 338 340 341 339 339 335 332 330 323 321 319 281 323 38 150 241 232 23 323 290 247 243 245 308 301 295 124 98 302 228 316 219 162 162 223 234 157 187 291 281 295
326 335 339 336 334 334 335 337 338 336 334 329 325 323 319 317 302 229 159 53 224 222 309 309 315 328 296 246 247 342 207 241 241 183 180 147 267 250 286 289 137 272 228 222 278 75 359
323 332 329 328 331 334 330 328 331 331 331 328 330 329 315 300 262 203 116 249 233 223 20 102 185 180 265 272 280 187 260 212 254 201 177 268 304 250 305 8 294 183 293 318 318 312 300
321 321 321 326 327 325 323 324 326 331 333 333 337 322 300 290 239 189 227 232 272 265 238 194 228 268 240 240 211 223 242 267 211 211 147 152 161 278 28 218 203 341 297 227 258 208 269
315 312 313 317 318 317 317 320 323 329 332 338 328 300 301 283 225 221 217 212 255 266 264 260 263 260 241 193 224 236 234 221 174 143 224 208 187 273 243 270 202 197 234 253 256 289 236
304 301 304 313 316 317 320 323 329 335 341 334 311 284 273 231 252 253 258 268 255 279 251 255 248 219 209 237 244 202 252 253 226 187 233 187 234 320 322 350 10 127 253 246 275 297 256
292 297 301 306 313 317 322 326 330 338 337 333 306 308 250 210 253 287 298 293 275 223 272 269 251 256 269 232 231 262 250 245 211 232 235 191 198 192 244 245 168 297 287 279 274 247 255
290 294 301 307 311 318 323 328 332 335 336 333 280 260 264 285 279 255 263 283 292 303 265 227 290 256 277 286 273 244 261 263 246 239 224 235 261 198 251 270 260 275 276 282 267 240 235
285 292 300 303 311 315 318 324 329 329 330 318 279 314 304 279 282 297 299 290 289 300 301 288 280 296 292 289 299 287 282 285 279 174 200 190 246 151 271 272 25 260 253 252 253 252 245
287 295 299 303 310 313 311 321 323 327 326 321 309 295 283 282 295 290 288 295 298 295 277 289 296 302 302 295 298 297 290 282 267 223 204 195 196 159 258 244 324 323 236 199 247 236 178
287 291 297 305 308 307 312 317 321 317 316 306 304 306 292 286 287 284 292 294 297 312 315 309 303 296 301 307 309 292 271 273 251 237 220 188 170 188 262 4 348 242 239 173 214 244 225
285 290 297 304 305 306 308 314 314 311 311 301 299 296 287 283 293 294 292 299 309 299 295 305 300 303 311 331 305 306 316 327 267 259 234 209 187 225 186 206 294 318 292 184 151 291 215
288 293 299 304 305 305 307 310 308 314 307 304 298 294 285 283 271 303 300 300 312 303 305 293 312 309 311 298 312 269 229 200 293 353 250 225 206 164 136 188 221 238 279 180 114 308 235
286 289 296 299 299 302 308 307 308 306 307 303 295 299 294 285 287 279 296 299 301 287 291 312 311 302 287 264 274 274 276 175 243 177 184 98 150 204 215 276 289 245 215 151 66 249 193
284 290 296 299 301 305 301 304 309 309 308 305 299 301 296 286 288 284 282 278 293 288 286 305 322 300 350 42 202 253 283 273 360 221 186 176 163 186 122 212 280 160 117 165 216 251 271
282 289 296 296 299 300 306 304 305 307 307 305 300 303 304 279 271 284 288 285 280 283 273 266 247 268 237 317 330 334 298 265 253 274 87 244 207 184 189 211 233 200 231 221 265 266 273
Wind_Speed_850mb
34 37 41 37 37 42 45 38 38 47 42 50 52 49 52 54 56 55 53 45 49 52 50 44 23 24 31 10 11 8 13 27 24 24 23 28 17 7 7 6 10 10 25 39 55 58 47
36 38 38 36 39 44 41 44 38 38 44 51 53 52 53 54 56 54 51 46 51 50 42 26 21 32 18 5 12 5 21 31 25 27 26 20 9 9 16 14 12 14 18 39 49 65 45
34 33 37 34 40 48 52 46 46 45 37 45 52 54 57 55 55 54 49 49 56 51 23 35 27 19 13 9 8 19 30 36 29 25 25 24 24 17 7 11 37 29 22 30 43 57 29
35 39 40 40 35 46 51 48 48 48 47 40 48 52 53 56 58 56 50 52 53 48 22 27 8 6 9 9 15 25 30 34 22 22 27 27 25 28 28 23 19 15 9 20 26 20 19
34 32 41 44 40 42 48 49 53 49 51 49 45 50 53 58 62 58 55 54 49 11 36 15 3 4 7 7 18 29 29 29 29 26 23 28 20 13 5 4 9 10 12 19 30 31 10
36 26 27 37 42 41 43 46 51 47 50 50 51 48 50 58 60 58 61 56 45 5 27 8 10 8 11 10 24 34 26 20 26 28 16 3 4 3 1 6 14 21 17 28 35 20 22
35 35 36 38 37 37 37 42 46 42 44 51 51 51 51 59 63 51 65 52 48 6 42 15 25 18 25 24 39 32 18 13 14 7 3 3 2 20 26 33 33 24 29 35 45 49 34
37 36 35 38 39 39 40 42 45 42 44 47 49 52 56 58 54 56 51 36 35 23 24 13 21 34 31 28 19 27 12 5 4 10 5 5 18 33 17 19 27 29 36 43 48 29 18
34 35 36 39 41 43 44 46 47 47 47 47 48 51 58 61 43 68 42 41 46 21 12 20 17 21 17 14 15 19 5 6 10 8 13 16 21 15 24 25 28 35 29 38 40 45 21
37 37 38 39 39 40 44 43 46 48 49 49 51 54 59 61 38 73 25 42 41 19 9 7 7 6 8 11 11 18 15 8 4 10 6 14 10 14 22 19 23 27 15 29 33 22 22
36 36 37 41 39 37 39 43 45 47 48 51 54 55 58 60 62 58 33 42 27 8 10 3 5 8 8 8 21 2 12 8 12 16 11 20 14 15 14 20 6 21 25 26 33 33 26
33 30 30 39 38 38 40 44 47 49 50 52 55 56 58 62 72 46 33 37 15 10 13 8 4 5 6 6 7 13 10 9 5 4 7 34 13 8 12 12 6 20 11 29 7 3 6
31 22 28 35 39 41 44 47 50 52 54 56 58 60 55 68 58 34 18 21 9 7 5 8 8 1 0 7 8 4 5 8 5 10 8 7 9 8 9 11 11 15 13 9 11 7 11
24 25 30 34 40 45 49 52 54 56 58 55 57 62 69 66 43 15 7 8 6 8 14 6 4 5 9 3 8 5 7 9 1 9 6 2 18 5 5 11 11 6 11 5 12 6 33
20 25 33 40 44 49 51 51 54 59 64 66 68 69 71 37 22 15 5 3 13 11 4 6 9 4 7 7 6 6 7 9 9 15 14 4 14 7 21 14 16 10 3 9 11 2 7
21 29 37 41 43 48 48 52 58 64 72 74 78 62 37 15 13 17 5 17 12 9 1 5 8 11 13 6 5 2 3 7 8 18 4 7 14 10 4 9 6 10 4 8 2 10 12
25 35 37 39 43 43 48 58 68 73 70 68 58 30 16 15 17 9 7 15 10 24 14 11 14 17 19 9 9 8 12 6 9 4 9 7 6 14 7 3 13 8 8 10 6 5 6
30 36 37 40 44 52 64 70 72 67 62 64 34 10 23 32 6 8 5 11 8 12 21 17 10 21 11 12 11 12 17 14 13 12 7 10 8 9 21 18 10 10 10 4 3 12 8
36 36 41 47 55 64 67 67 57 55 54 57 31 31 23 23 8 7 12 15 13 25 13 8 10 16 12 12 13 18 14 13 29 13 9 8 5 8 22 11 8 4 8 10 14 5 17
40 43 48 53 61 66 67 56 55 45 47 45 21 8 7 25 25 11 23 37 20 10 14 16 10 26 31 13 16 14 22 10 20 25 43 18 13 16 19 20 3 21 32 29 15 7 6
43 45 52 58 63 64 56 44 42 44 42 39 10 9 8 11 17 19 22 32 40 46 21 12 41 23 27 25 34 20 24 17 22 40 15 7 19 9 17 19 10 33 40 41 22 23 13
45 50 55 66 61 62 49 46 42 42 44 32 14 14 14 38 42 24 31 42 48 30 41 37 17 44 38 30 27 38 28 37 25 4 11 10 8 7 8 15 1 12 22 22 25 22 22
49 54 59 65 63 49 43 42 42 41 36 35 31 43 41 28 20 23 28 36 50 47 26 44 42 35 37 42 41 44 45 52 43 16 19 10 8 4 9 5 13 14 12 9 5 6 8
51 54 57 59 50 42 43 41 43 41 36 40 51 50 35 25 21 28 44 50 47 27 33 51 57 35 48 58 56 58 55 43 36 34 33 11 10 6 7 8 5 14 5 6 10 15 14
54 59 54 54 43 42 42 44 43 43 40 43 47 42 34 22 38 43 43 31 61 73 25 31 51 57 54 25 11 13 10 6 9 19 21 24 12 3 3 5 13 14 4 8 7 12 9
57 55 55 46 41 41 41 43 44 44 45 46 53 56 50 29 17 42 55 46 23 37 44 41 36 42 25 6 13 19 7 5 7 8 4 10 20 10 5 7 8 14 8 6 6 7 6
57 54 50 40 41 41 44 46 44 48 46 48 61 56 53 59 61 31 35 42 43 29 12 31 28 34 39 7 12 8 14 3 4 6 6 5 4 20 8 5 14 12 8 10 8 9 4
53 52 49 41 40 44 47 47 47 48 52 51 63 59 58 63 70 75 51 48 71 57 21 40 21 7 7 3 5 3 5 3 3 5 7 11 11 6 4 5 13 13 9 9 11 5 5
58 52 45 37 43 45 48 50 49 52 54 51 69 67 68 65 80 101 92 88 75 57 51 23 17 17 12 1 5 5 5 3 2 4 2 5 8 6 13 11 7 25 13 21 14 13 8
Wind_Direction_850mb
20 13 9 14 9 360 359 4 4 357 359 351 355 349 348 349 348 345 344 344 339 333 330 324 333 321 328 299 250 253 321 327 330 330 342 353 13 20 344 304 330 262 275 294 287 292 284
8 10 3 9 10 6 1 358 360 354 353 348 353 351 346 347 346 345 347 344 336 330 330 332 309 315 326 264 177 297 325 333 327 326 325 332 334 299 270 239 200 245 260 258 272 277 279
6 12 360 5 358 358 5 359 360 356 352 349 346 348 348 348 347 346 346 344 334 331 318 328 307 274 287 229 237 307 315 323 316 313 314 313 302 257 249 281 256 263 279 275 270 269 261
2 6 8 8 5 348 355 360 1 358 354 347 343 346 347 347 347 346 345 345 332 332 335 331 329 254 261 189 279 309 311 310 299 296 301 304 291 271 241 260 297 272 242 266 256 231 239
355 359 353 355 0 355 351 358 353 354 353 354 346 345 349 347 344 343 345 347 337 327 342 334 320 259 257 255 297 320 321 312 311 313 305 299 276 250 188 210 312 219 257 227 281 285 230
346 357 355 352 350 350 352 350 346 351 348 350 350 344 344 343 345 342 345 351 348 186 352 297 272 284 234 284 315 329 323 293 311 308 333 134 238 268 254 135 235 256 259 274 276 269 321
1 1 1 352 349 348 350 342 346 350 347 351 352 348 343 343 346 347 347 2 15 330 333 282 273 270 289 301 302 329 299 300 303 309 239 328 254 239 236 216 237 264 269 267 281 285 293
352 350 350 347 352 354 356 354 353 352 347 348 349 351 347 345 349 351 348 23 6 319 310 313 256 263 281 294 289 319 275 280 219 246 149 342 232 252 249 239 248 259 268 283 287 285 309
355 357 355 352 350 349 350 352 353 350 351 347 348 347 347 344 352 349 352 359 349 334 278 288 252 272 283 273 280 309 278 228 220 249 205 201 248 312 276 275 282 271 277 282 276 301 278
348 348 343 339 339 340 344 346 347 350 350 350 348 350 346 343 351 345 342 340 340 323 48 253 253 269 237 278 279 300 270 231 242 248 260 241 278 262 287 268 275 281 243 275 287 313 296
331 332 342 348 345 342 344 349 352 352 351 348 344 346 343 341 336 339 329 335 337 330 351 181 221 234 255 223 308 306 191 203 217 236 94 254 274 286 276 259 243 248 304 281 270 267 294
333 340 347 352 351 353 349 348 348 347 345 338 338 339 337 335 332 332 325 326 324 33 259 308 229 218 340 217 242 293 276 252 274 300 261 256 283 223 230 284 261 308 321 294 352 157 237
335 339 344 346 342 344 343 341 340 337 337 334 334 332 329 329 324 317 322 326 7 146 346 271 273 196 243 264 293 56 328 309 186 2 319 307 240 260 202 355 346 40 27 325 346 355 237
323 334 341 342 340 338 338 340 341 339 339 335 332 330 323 321 319 281 323 38 150 241 232 23 323 290 247 243 245 308 301 295 124 98 302 228 316 219 162 162 223 234 157 187 291 281 295
326 335 339 336 334 334 335 337 338 336 334 329 325 323 319 317 302 229 159 53 224 222 309 309 315 328 296 246 247 342 207 241 241 183 180 147 267 250 286 289 137 272 228 222 278 75 359
323 332 329 328 331 334 330 328 331 331 331 328 330 329 315 300 262 203 116 249 233 223 20 102 185 180 265 272 280 187 260 212 254 201 177 268 304 250 305 8 294 183 293 318 318 312 300
321 321 321 326 327 325 323 324 326 331 333 333 337 322 300 290 239 189 227 232 272 265 238 194 228 268 240 240 211 223 242 267 211 211 147 152 161 278 28 218 203 341 297 227 258 208 269
315 312 313 317 318 317 317 320 323 329 332 338 328 300 301 283 225 221 217 212 255 266 264 260 263 260 241 193 224 236 234 221 174 143 224 208 187 273 243 270 202 197 234 253 256 289 236
304 301 304 313 316 317 320 323 329 335 341 334 311 284 273 231 252 253 258 268 255 279 251 255 248 219 209 237 244 202 252 253 226 187 233 187 234 320 322 350 10 127 253 246 275 297 256
292 297 301 306 313 317 322 326 330 338 337 333 306 308 250 210 253 287 298 293 275 223 272 269 251 256 269 232 231 262 250 245 211 232 235 191 198 192 244 245 168 297 287 279 274 247 255
290 294 301 307 311 318 323 328 332 335 336 333 280 260 264 285 279 255 263 283 292 303 265 227 290 256 277 286 273 244 261 263 246 239 224 235 261 198 251 270 260 275 276 282 267 240 235
285 292 300 303 311 315 318 324 329 329 330 318 279 314 304 279 282 297 299 290 289 300 301 288 280 296 292 289 299 287 282 285 279 174 200 190 246 151 271 272 25 260 253 252 253 252 245
287 295 299 303 310 313 311 321 323 327 326 321 309 295 283 282 295 290 288 295 298 295 277 289 296 302 302 295 298 297 290 282 267 223 204 195 196 159 258 244 324 323 236 199 247 236 178
287 291 297 305 308 307 312 317 321 317 316 306 304 306 292 286 287 284 292 294 297 312 315 309 303 296 301 307 309 292 271 273 251 237 220 188 170 188 262 4 348 242 239 173 214 244 225
285 290 297 304 305 306 308 314 314 311 311 301 299 296 287 283 293 294 292 299 309 299 295 305 300 303 311 331 305 306 316 327 267 259 234 209 187 225 186 206 294 318 292 184 151 291 215
288 293 299 304 305 305 307 310 308 314 307 304 298 294 285 283 271 303 300 300 312 303 305 293 312 309 311 298 312 269 229 200 293 353 250 225 206 164 136 188 221 238 279 180 114 308 235
286 289 296 299 299 302 308 307 308 306 307 303 295 299 294 285 287 279 296 299 301 287 291 312 311 302 287 264 274 274 276 175 243 177 184 98 150 204 215 276 289 245 215 151 66 249 193
284 290 296 299 301 305 301 304 309 309 308 305 299 301 296 286 288 284 282 278 293 288 286 305 322 300 350 42 202 253 283 273 360 221 186 176 163 186 122 212 280 160 117 165 216 251 271
282 289 296 296 299 300 306 304 305 307 307 305 300 303 304 279 271 284 288 285 280 283 273 266 247 268 237 317 330 334 298 265 253 274 87 244 207 184 189 211 233 200 231 221 265 266 273